TimeHST,TemperatureF,Dew PointF,Humidity,Sea Level PressureIn,VisibilityMPH,Wind Direction,Wind SpeedMPH,Gust SpeedMPH,PrecipitationIn,Events,Conditions,WindDirDegrees,DateUTC
12:56 AM,71.1,63.0,75,30.11,10.0,ENE,4.6,-,N/A,,Scattered Clouds,70,2012-11-18 10:56:00
1:56 AM,72.0,63.0,73,30.09,10.0,East,3.5,-,0.00,,Mostly Cloudy,80,2012-11-18 11:56:00
2:56 AM,72.0,63.0,73,30.08,10.0,Calm,Calm,-,N/A,,Mostly Cloudy,0,2012-11-18 12:56:00
3:56 AM,71.1,63.0,75,30.07,10.0,ENE,3.5,-,N/A,,Partly Cloudy,60,2012-11-18 13:56:00
4:56 AM,70.0,63.0,78,30.06,10.0,East,3.5,-,N/A,,Clear,80,2012-11-18 14:56:00
5:56 AM,70.0,66.9,90,30.07,10.0,East,3.5,-,N/A,,Mostly Cloudy,100,2012-11-18 15:56:00
6:56 AM,69.1,64.9,87,30.09,10.0,ENE,4.6,-,N/A,,Clear,70,2012-11-18 16:56:00
7:56 AM,73.0,64.9,76,30.11,10.0,East,3.5,-,N/A,,Clear,80,2012-11-18 17:56:00
8:56 AM,75.9,68.0,76,30.12,10.0,WSW,3.5,-,N/A,,Clear,240,2012-11-18 18:56:00
9:56 AM,79.0,71.1,77,30.13,10.0,West,6.9,-,N/A,,Clear,260,2012-11-18 19:56:00
10:56 AM,80.1,73.0,79,30.12,10.0,West,9.2,-,N/A,,Clear,270,2012-11-18 20:56:00
11:56 AM,81.0,75.9,85,30.09,10.0,WNW,9.2,-,N/A,,Clear,300,2012-11-18 21:56:00
12:56 PM,80.1,75.9,87,30.07,10.0,NW,8.1,-,N/A,,Clear,320,2012-11-18 22:56:00
1:56 PM,80.1,75.9,87,30.05,10.0,WNW,5.8,-,N/A,,Mostly Cloudy,300,2012-11-18 23:56:00
2:56 PM,81.0,80.1,97,30.03,10.0,West,6.9,-,N/A,,Clear,280,2012-11-19 00:56:00
3:56 PM,81.0,81.0,100,30.03,10.0,West,5.8,-,N/A,,Clear,280,2012-11-19 01:56:00
4:56 PM,80.1,63.0,56,30.02,10.0,West,4.6,-,N/A,,Partly Cloudy,280,2012-11-19 02:56:00
5:56 PM,80.1,78.1,94,30.04,10.0,WNW,3.5,-,N/A,,Clear,300,2012-11-19 03:56:00
6:56 PM,77.0,75.0,94,30.05,10.0,Calm,Calm,-,N/A,,Clear,0,2012-11-19 04:56:00
7:56 PM,75.0,57.0,53,30.07,10.0,SE,5.8,-,N/A,,Clear,140,2012-11-19 05:56:00
8:56 PM,73.9,-9999,N/A,30.08,10.0,SE,4.6,-,N/A,,Clear,140,2012-11-19 06:56:00
9:56 PM,73.0,66.0,79,30.09,10.0,East,3.5,-,N/A,,Clear,100,2012-11-19 07:56:00
10:56 PM,73.0,55.9,55,30.09,10.0,ENE,4.6,-,N/A,,Mostly Cloudy,70,2012-11-19 08:56:00
11:56 PM,73.0,69.1,87,30.09,10.0,SSE,3.5,-,N/A,,Overcast,150,2012-11-19 09:56:00